CZ-6A DEB, 54418

Orbit data source: Space-Track

CZ-6A DEB, 54418 is space debris in SSO originally from a launch on Fri, 11 Nov 2022 UTC launched from the Taiyaun Space Center, China (TSC). Debris objects in space refer to the collection of defunct objects orbiting the Earth. Examples of debris include non-operational satellites, rocket bodies, and fragments generated from explosions, collisions, or faulty payload assembly.

Loading next visibility...
Identifier
54418, 2022-151ES
Orbit
SSO
Country
Flag of CNCN / PRC
Related business
Manufacturer
SAST
Mission
Spacecraft
Bus & Motor
Unknown
Mass
Unknown
Launch date (UTC)
2022-11-11 (4 years ago)
Launch vehicle
Unknown
Launch site
Taiyaun Space Center, China (TSC)
Object type
Payload
Rocket body
Debris
Shape & HBR
Unknown shape, 0.3 m
Radar Cross Section
Medium (>0.1 m² and <1 m²)

Expand to show TLE details & history
Last TLE update: 2 days ago

TLE from 2 days ago
0 CZ-6A DEB
1 54418U 22151ES  26171.37529980  .00000859  00000-0  82206-3 0  9996
2 54418  98.8853  89.9590 0238502 183.9507 175.9764 13.70996276179925
Epoch: 2026-06-20T09:00Z
TLE epoch observation values (Epoch: 2026-06-20T09:00:25.902Z)
Latitude
-0.00004°
Longitude
46.26026°
Altitude
1,174.334 km
Speed
7.179 km/s
True Right ascension
05h 59m 50s
True Declination
0° 00' 00"
Sunlit
Object was in daylight at epoch
Visualization orbit readout
Latitude
Unknown
Longitude
Unknown
Altitude
Unknown
Speed
Unknown
Apparent Right ascension
Unknown
Apparent Declination
Unknown
Sunlit
N/A
Visualization observer readout
Local Sidereal Time
22:00:32
Azimuth
Unknown
Elevation
Unknown
Doppler factor
Unknown
Orbital elements
Apogee altitude
1,169.035 km
Perigee altitude
817.418 km
Semi-major axis
7,371.364 km
Eccentricity
0.02385
Inclination
98.8853°
RAAN
89.959°
Arg. of periapsis
183.9507°
True anomaly
176.16262°
Mean anomaly
175.9764°
Eccentric anomaly
176.07006°
Mean motion
3.42943 °/min
Orbital period
104.97 mins
BSTAR
0.00082206
Loading maneuver chart data...
Computing Atmospheric mass density...
Loading historical data...
Loading historical data...
Loading historical data...
Loading historical data...
Loading historical data...
Loading historical data...
Loading historical data...

Documentation

Showing up to 5 results
|